NORTHEAST SUFFOLK  -  Air Quality Alert Air Quality Alert        NORTHERN NASSAU  -  Air Quality Alert Air Quality Alert        NORTHERN QUEENS  -  Air Quality Alert Air Quality Alert        NORTHWEST SUFFOLK  -  Air Quality Alert Air Quality Alert        SOUTHEAST SUFFOLK  -  Air Quality Alert Air Quality Alert        SOUTHERN NASSAU  -  Air Quality Alert Air Quality Alert        SOUTHERN QUEENS  -  Air Quality Alert Air Quality Alert        SOUTHWEST SUFFOLK  -  Air Quality Alert Air Quality Alert      

Active alerts

Northern Queens
  Details for Northern Queens Air Quality Alert
Southern Queens
  Details for Southern Queens Air Quality Alert
Northern Nassau
  Details for Northern Nassau Air Quality Alert
Southern Nassau
  Details for Southern Nassau Air Quality Alert
Northwest Suffolk
  Details for Northwest Suffolk Air Quality Alert
Southwest Suffolk
  Details for Southwest Suffolk Air Quality Alert
Northeast Suffolk
  Details for Northeast Suffolk Air Quality Alert
Southeast Suffolk
  Details for Southeast Suffolk Air Quality Alert


WXM80 ListenWXM80 Stop

You find our weather info also at:

UK Metoffice

WeatherCloud

Weather Underground

Northeastern Weather Network

AWEKAS

Citizen Weather Observer Program (CWOP)

HAMweather, WeatherForYou, PWS Weather


Weather Underground History page Text

Daily Summary for July 4, 2017 Units:  English    Metric   Both
« Previous Day
Next Day »
Daily Weekly Monthly Yearly Custom
  High: Low: Average:
Temperature: 90.8 °F 65.3 °F 76.2 °F
Dew Point: 68.2 °F 58.9 °F 63.9 °F
Humidity: 95 % 41 % 69 %
Wind Speed: 3.9 mph 0.0 mph 0.6 mph
Wind Gust: 6.9 mph - -
Wind:- - SW
Pressure: 30.07 in 29.95 in -
Precipitation: 0.04 in    
Historical Graphs
 
 
Tabular Data for July 4, 2017
Time Temperature Dew Point Pressure Wind Wind Speed Wind Gust Humidity Rainfall Rate (Hourly)
00:04 72.7 °F 66.9 °F 29.98 in SW 1.9 mph 5.8 mph 82 % 0.00 in
00:09 72.7 °F 67.9 °F 29.98 in WNW 1.1 mph 3.5 mph 85 % 0.02 in
00:14 72.6 °F 68.2 °F 29.98 in WNW 0.2 mph 6.9 mph 86 % 0.03 in
00:19 72.5 °F 68.1 °F 29.98 in NW 0.2 mph 1.2 mph 86 % 0.03 in
00:24 72.3 °F 67.9 °F 29.97 in Calm     86 % 0.03 in
00:29 72.2 °F 67.8 °F 29.97 in Calm     86 % 0.03 in
00:34 72.0 °F 67.6 °F 29.97 in NW 0.9 mph 2.3 mph 86 % 0.03 in
00:39 71.8 °F 67.4 °F 29.97 in NW 0.6 mph 1.2 mph 86 % 0.03 in
00:44 71.7 °F 67.3 °F 29.97 in Calm   1.2 mph 86 % 0.03 in
00:50 71.5 °F 67.4 °F 29.97 in Calm     87 % 0.03 in
00:55 71.4 °F 67.3 °F 29.97 in Calm     87 % 0.03 in
01:00 71.3 °F 67.6 °F 29.97 in Calm   1.2 mph 88 % 0.03 in
01:05 71.2 °F 67.5 °F 29.97 in NW 0.2 mph 1.0 mph 88 % 0.03 in
01:10 71.1 °F 67.7 °F 29.97 in Calm     89 % 0.01 in
01:15 71.0 °F 67.6 °F 29.96 in Calm   1.2 mph 89 % 0.00 in
01:20 71.0 °F 67.6 °F 29.97 in Calm     89 % 0.01 in
01:25 70.9 °F 67.8 °F 29.96 in Calm     90 % 0.01 in
01:30 70.8 °F 67.7 °F 29.96 in Calm     90 % 0.01 in
01:35 70.8 °F 68.0 °F 29.96 in Calm     91 % 0.01 in
01:40 70.7 °F 67.9 °F 29.96 in Calm     91 % 0.01 in
01:45 70.7 °F 67.9 °F 29.96 in Calm     91 % 0.01 in
01:50 70.6 °F 67.8 °F 29.96 in Calm     91 % 0.01 in
01:55 70.5 °F 67.7 °F 29.96 in Calm     91 % 0.01 in
02:00 70.4 °F 67.6 °F 29.96 in NW 0.2 mph 1.2 mph 91 % 0.01 in
02:05 70.3 °F 67.5 °F 29.95 in Calm     91 % 0.01 in
02:10 70.2 °F 67.4 °F 29.96 in Calm     91 % 0.01 in
02:11 70.2 °F 67.1 °F 29.96 in Calm     90 % 0.01 in
02:16 70.1 °F 67.0 °F 29.96 in Calm     90 % 0.00 in
02:21 69.9 °F 66.8 °F 29.96 in Calm     90 % 0.00 in
02:26 69.8 °F 66.7 °F 29.95 in Calm     90 % 0.00 in
02:31 69.6 °F 66.5 °F 29.95 in Calm     90 % 0.00 in
02:37 69.5 °F 66.4 °F 29.96 in NW 0.2 mph 1.0 mph 90 % 0.00 in
02:42 69.4 °F 66.3 °F 29.96 in NW 0.4 mph 2.3 mph 90 % 0.00 in
02:47 69.2 °F 66.1 °F 29.96 in Calm     90 % 0.00 in
02:52 69.1 °F 66.0 °F 29.96 in Calm     90 % 0.00 in
02:57 68.9 °F 65.8 °F 29.96 in Calm     90 % 0.00 in
03:02 68.8 °F 65.7 °F 29.96 in Calm     90 % 0.00 in
03:07 68.6 °F 65.5 °F 29.96 in Calm     90 % 0.00 in
03:12 68.5 °F 65.4 °F 29.96 in Calm     90 % 0.00 in
03:17 68.3 °F 65.3 °F 29.96 in Calm     90 % 0.00 in
03:22 68.2 °F 65.2 °F 29.96 in Calm     90 % 0.00 in
03:27 68.1 °F 65.1 °F 29.97 in Calm     90 % 0.00 in
03:32 68.0 °F 65.0 °F 29.97 in Calm     90 % 0.00 in
03:37 67.9 °F 64.9 °F 29.97 in Calm     90 % 0.00 in
03:42 67.8 °F 64.8 °F 29.96 in Calm     90 % 0.00 in
03:47 67.7 °F 65.0 °F 29.97 in Calm     91 % 0.00 in
03:52 67.6 °F 64.6 °F 29.97 in Calm     90 % 0.00 in
03:57 67.5 °F 64.5 °F 29.97 in Calm     90 % 0.00 in
04:02 67.4 °F 64.7 °F 29.97 in Calm     91 % 0.00 in
04:07 67.3 °F 64.6 °F 29.97 in Calm     91 % 0.00 in
04:12 67.2 °F 64.5 °F 29.97 in Calm     91 % 0.00 in
04:17 67.1 °F 64.4 °F 29.97 in Calm     91 % 0.00 in
04:22 67.0 °F 64.3 °F 29.97 in Calm     91 % 0.00 in
04:27 66.9 °F 64.2 °F 29.97 in Calm     91 % 0.00 in
04:32 66.8 °F 64.1 °F 29.97 in Calm     91 % 0.00 in
04:37 66.7 °F 64.0 °F 29.98 in Calm     91 % 0.00 in
04:42 66.6 °F 63.9 °F 29.98 in Calm     91 % 0.00 in
04:47 66.5 °F 63.8 °F 29.98 in Calm     91 % 0.00 in
04:52 66.4 °F 63.7 °F 29.98 in Calm     91 % 0.00 in
04:57 66.3 °F 63.6 °F 29.98 in Calm     91 % 0.00 in
05:02 66.2 °F 63.5 °F 29.99 in Calm     91 % 0.00 in
05:07 66.1 °F 63.7 °F 29.99 in Calm     92 % 0.00 in
05:12 66.0 °F 63.6 °F 29.99 in Calm     92 % 0.00 in
05:17 65.9 °F 63.5 °F 29.99 in Calm     92 % 0.00 in
05:22 65.8 °F 63.4 °F 29.99 in Calm     92 % 0.00 in
05:28 65.7 °F 63.3 °F 29.99 in Calm     92 % 0.00 in
05:33 65.6 °F 63.2 °F 29.99 in Calm     92 % 0.00 in
05:38 65.6 °F 63.2 °F 29.99 in Calm     92 % 0.00 in
05:43 65.5 °F 63.1 °F 29.99 in Calm     92 % 0.00 in
05:48 65.4 °F 63.0 °F 29.99 in Calm     92 % 0.00 in
05:53 65.4 °F 63.0 °F 29.99 in Calm     92 % 0.00 in
05:58 65.4 °F 63.0 °F 29.99 in Calm     92 % 0.00 in
06:03 65.3 °F 63.2 °F 29.99 in Calm     93 % 0.00 in
06:08 65.3 °F 63.2 °F 30.00 in Calm     93 % 0.00 in
06:13 65.3 °F 63.2 °F 30.00 in Calm     93 % 0.00 in
06:18 65.3 °F 63.2 °F 30.00 in Calm   1.2 mph 93 % 0.00 in
06:23 65.4 °F 63.3 °F 30.00 in Calm     93 % 0.00 in
06:28 65.5 °F 63.7 °F 30.00 in Calm     94 % 0.00 in
06:33 65.7 °F 63.9 °F 30.01 in Calm     94 % 0.00 in
06:38 65.9 °F 64.1 °F 30.01 in Calm     94 % 0.00 in
06:43 66.2 °F 64.7 °F 30.01 in SW 0.1 mph 1.2 mph 95 % 0.00 in
06:45 66.4 °F 64.9 °F 30.01 in East 0.2 mph 1.2 mph 95 % 0.00 in
06:50 66.7 °F 65.2 °F 30.02 in Calm   1.2 mph 95 % 0.00 in
06:56 66.7 °F 65.2 °F 30.02 in Calm   1.0 mph 95 % 0.00 in
06:57 66.7 °F 65.2 °F 30.02 in Calm     95 % 0.00 in
07:02 66.8 °F 65.3 °F 30.02 in Calm   1.2 mph 95 % 0.00 in
07:04 66.8 °F 65.3 °F 30.02 in Calm   1.2 mph 95 % 0.00 in
07:09 66.8 °F 65.0 °F 30.02 in ENE 0.2 mph 2.3 mph 94 % 0.00 in
07:14 66.9 °F 65.1 °F 30.03 in ENE 0.3 mph 1.2 mph 94 % 0.00 in
07:19 66.9 °F 65.1 °F 30.03 in NE 0.5 mph 2.3 mph 94 % 0.00 in
07:24 66.9 °F 65.1 °F 30.02 in NE 0.3 mph 1.2 mph 94 % 0.00 in
07:29 67.0 °F 64.9 °F 30.03 in NNW 0.3 mph 1.2 mph 93 % 0.00 in
07:34 67.1 °F 65.0 °F 30.03 in NNE 0.1 mph 1.2 mph 93 % 0.00 in
07:39 67.2 °F 65.1 °F 30.03 in ENE 1.2 mph 3.5 mph 93 % 0.00 in
07:44 67.4 °F 65.3 °F 30.03 in NNE 1.6 mph 3.5 mph 93 % 0.00 in
07:49 67.5 °F 65.4 °F 30.03 in North 2.0 mph 3.5 mph 93 % 0.00 in
07:54 67.6 °F 65.2 °F 30.03 in NNE 1.1 mph 3.5 mph 92 % 0.00 in
07:59 67.7 °F 65.0 °F 30.04 in NNE 1.2 mph 2.3 mph 91 % 0.00 in
08:04 67.9 °F 64.9 °F 30.04 in NNE 0.2 mph   90 % 0.00 in
08:09 68.1 °F 65.1 °F 30.04 in Calm     90 % 0.00 in
08:14 68.3 °F 65.3 °F 30.05 in Calm   1.2 mph 90 % 0.00 in
08:19 68.4 °F 65.0 °F 30.04 in Calm     89 % 0.00 in
08:24 68.5 °F 64.8 °F 30.04 in Calm     88 % 0.00 in
08:29 68.8 °F 65.1 °F 30.04 in Calm   1.2 mph 88 % 0.00 in
08:34 68.9 °F 65.2 °F 30.05 in NNE 0.8 mph 2.3 mph 88 % 0.00 in
08:39 69.1 °F 64.7 °F 30.05 in North 0.1 mph 3.5 mph 86 % 0.00 in
08:44 69.3 °F 64.6 °F 30.05 in North 0.6 mph 2.0 mph 85 % 0.00 in
08:49 69.5 °F 64.1 °F 30.05 in North 1.8 mph 3.5 mph 83 % 0.00 in
08:54 69.7 °F 64.0 °F 30.04 in North 0.5 mph 3.5 mph 82 % 0.00 in
08:59 69.8 °F 62.6 °F 30.04 in Calm   2.3 mph 78 % 0.00 in
09:05 70.0 °F 62.8 °F 30.05 in North 1.6 mph 3.5 mph 78 % 0.00 in
09:10 70.2 °F 63.4 °F 30.04 in North 1.2 mph 3.5 mph 79 % 0.00 in
09:15 70.3 °F 62.7 °F 30.04 in Calm   2.3 mph 77 % 0.00 in
09:20 70.5 °F 62.9 °F 30.04 in North 2.4 mph 3.5 mph 77 % 0.00 in
09:25 70.6 °F 62.7 °F 30.05 in NNE 0.2 mph 1.2 mph 76 % 0.00 in
09:30 70.8 °F 62.5 °F 30.05 in North 0.6 mph 3.5 mph 75 % 0.00 in
09:35 71.0 °F 62.3 °F 30.04 in NNE 0.6 mph 2.3 mph 74 % 0.00 in
09:40 71.1 °F 62.4 °F 30.04 in Calm     74 % 0.00 in
09:45 71.3 °F 63.0 °F 30.05 in Calm     75 % 0.00 in
09:50 71.5 °F 63.2 °F 30.05 in Calm     75 % 0.00 in
09:55 71.6 °F 62.1 °F 30.04 in Calm   1.2 mph 72 % 0.00 in
10:00 71.7 °F 63.4 °F 30.04 in NE 0.1 mph 1.2 mph 75 % 0.00 in
10:05 71.8 °F 63.1 °F 30.04 in NE 0.9 mph 2.3 mph 74 % 0.00 in
10:10 71.9 °F 62.8 °F 30.04 in Calm     73 % 0.00 in
10:15 72.1 °F 62.6 °F 30.04 in Calm     72 % 0.00 in
10:20 72.5 °F 63.4 °F 30.04 in NNE 0.7 mph 2.0 mph 73 % 0.00 in
10:25 72.8 °F 63.2 °F 30.04 in NW 1.0 mph 2.3 mph 72 % 0.00 in
10:30 73.1 °F 63.5 °F 30.04 in NW 0.9 mph 3.5 mph 72 % 0.00 in
10:35 73.4 °F 63.8 °F 30.04 in NW 0.5 mph 2.3 mph 72 % 0.00 in
10:40 73.6 °F 64.0 °F 30.04 in NW 0.1 mph 3.5 mph 72 % 0.00 in
10:45 73.8 °F 64.2 °F 30.04 in NW 0.5 mph 2.3 mph 72 % 0.00 in
10:51 74.6 °F 66.5 °F 30.04 in NW 1.9 mph 2.0 mph 76 % 0.00 in
10:56 75.1 °F 64.2 °F 30.03 in NNW 1.2 mph 3.5 mph 69 % 0.00 in
11:01 75.9 °F 65.0 °F 30.04 in North 1.2 mph 4.0 mph 69 % 0.00 in
11:11 77.3 °F 63.7 °F 30.04 in NNW 1.7 mph 3.5 mph 63 % 0.00 in
11:16 77.8 °F 64.6 °F 30.04 in NW 1.1 mph 3.5 mph 64 % 0.00 in
11:21 78.4 °F 63.8 °F 30.04 in NW 1.2 mph 4.0 mph 61 % 0.00 in
11:26 79.2 °F 66.9 °F 30.03 in North 1.8 mph 4.0 mph 66 % 0.00 in
11:31 80.3 °F 66.1 °F 30.04 in NNE 2.0 mph 3.5 mph 62 % 0.00 in
11:36 81.1 °F 64.9 °F 30.03 in NW 2.0 mph 3.5 mph 58 % 0.00 in
11:41 81.6 °F 64.4 °F 30.03 in North 1.1 mph 2.3 mph 56 % 0.00 in
11:46 82.1 °F 61.6 °F 30.03 in West 3.2 mph 4.6 mph 50 % 0.00 in
11:56 83.2 °F 64.3 °F 30.03 in North 3.1 mph 3.5 mph 53 % 0.00 in
12:01 83.7 °F 61.9 °F 30.03 in NNW 1.2 mph 3.0 mph 48 % 0.00 in
12:06 84.1 °F 62.9 °F 30.03 in NW 0.7 mph 2.3 mph 49 % 0.00 in
12:11 84.4 °F 60.7 °F 30.03 in WNW 0.9 mph 2.3 mph 45 % 0.00 in
12:16 84.6 °F 59.6 °F 30.03 in WNW 0.7 mph 3.5 mph 43 % 0.00 in
12:22 85.0 °F 61.9 °F 30.03 in WNW 0.4 mph 2.3 mph 46 % 0.00 in
12:27 85.4 °F 59.7 °F 30.03 in NW 1.0 mph 3.0 mph 42 % 0.00 in
12:32 85.8 °F 61.4 °F 30.03 in West 3.6 mph 3.6 mph 44 % 0.00 in
12:37 86.1 °F 61.6 °F 30.03 in West 0.3 mph 3.5 mph 44 % 0.00 in
12:42 86.5 °F 61.3 °F 30.03 in NNW 0.4 mph 3.5 mph 43 % 0.00 in
12:47 87.0 °F 61.8 °F 30.02 in NNE 0.9 mph 3.5 mph 43 % 0.00 in
12:52 87.2 °F 63.9 °F 30.02 in WNW 0.4 mph 4.0 mph 46 % 0.00 in
12:57 87.3 °F 65.2 °F 30.02 in NNE 0.4 mph 3.5 mph 48 % 0.00 in
13:02 87.5 °F 62.9 °F 30.02 in West 1.5 mph 2.3 mph 44 % 0.00 in
13:07 87.5 °F 62.2 °F 30.02 in WNW 1.8 mph 4.0 mph 43 % 0.00 in
13:12 87.6 °F 64.9 °F 30.02 in West 0.6 mph 3.0 mph 47 % 0.00 in
13:17 87.9 °F 66.9 °F 30.02 in West 3.3 mph 4.6 mph 50 % 0.00 in
13:22 88.1 °F 63.4 °F 30.01 in NNE 0.3 mph 3.5 mph 44 % 0.00 in
13:27 88.3 °F 63.6 °F 30.01 in West 2.2 mph 3.5 mph 44 % 0.00 in
13:32 88.5 °F 65.7 °F 30.01 in West 0.9 mph 2.0 mph 47 % 0.00 in
13:37 88.8 °F 63.4 °F 30.01 in WSW 2.0 mph 3.5 mph 43 % 0.00 in
13:42 89.0 °F 64.3 °F 30.01 in SW 1.7 mph 4.6 mph 44 % 0.00 in
13:47 89.0 °F 65.5 °F 30.01 in Calm   1.2 mph 46 % 0.00 in
13:52 89.3 °F 64.5 °F 30.01 in SSW 1.9 mph 4.0 mph 44 % 0.00 in
13:57 89.3 °F 63.9 °F 30.01 in WSW 1.2 mph 3.5 mph 43 % 0.00 in
14:04 89.5 °F 65.4 °F 30.00 in NNW 1.5 mph 2.3 mph 45 % 0.00 in
14:10 89.7 °F 65.5 °F 30.00 in North 0.5 mph 2.3 mph 45 % 0.00 in
14:15 89.9 °F 65.1 °F 30.00 in WNW 2.0 mph 2.3 mph 44 % 0.00 in
14:20 90.1 °F 63.9 °F 30.00 in WNW 3.5 mph 3.5 mph 42 % 0.00 in
14:24 90.3 °F 63.4 °F 30.00 in WNW 2.5 mph 3.5 mph 41 % 0.00 in
14:29 90.3 °F 64.1 °F 30.00 in SW 2.9 mph 4.0 mph 42 % 0.00 in
14:35 90.3 °F 64.8 °F 30.00 in NW 0.9 mph 2.3 mph 43 % 0.00 in
14:40 90.0 °F 63.8 °F 30.00 in WNW 3.2 mph 6.9 mph 42 % 0.00 in
14:45 90.0 °F 65.8 °F 30.00 in WNW 1.0 mph 2.3 mph 45 % 0.00 in
14:50 90.1 °F 65.2 °F 30.00 in NNW 0.9 mph 3.5 mph 44 % 0.00 in
14:55 90.2 °F 65.3 °F 30.00 in NW 0.3 mph 2.3 mph 44 % 0.00 in
15:00 90.4 °F 66.8 °F 30.00 in WNW 0.4 mph 2.3 mph 46 % 0.00 in
15:05 90.5 °F 64.9 °F 30.00 in WNW 1.8 mph 4.6 mph 43 % 0.00 in
15:10 90.6 °F 63.7 °F 30.00 in WNW 1.4 mph 2.3 mph 41 % 0.00 in
15:15 90.8 °F 64.5 °F 30.00 in SW 3.4 mph 5.0 mph 42 % 0.00 in
15:20 90.8 °F 63.9 °F 30.00 in WNW 2.8 mph 6.0 mph 41 % 0.00 in
15:25 90.7 °F 63.8 °F 30.00 in NNE 3.9 mph 5.0 mph 41 % 0.00 in
15:30 90.5 °F 63.6 °F 29.99 in NNE 2.9 mph 5.0 mph 41 % 0.00 in
15:35 90.3 °F 64.1 °F 30.00 in NE 1.9 mph 5.8 mph 42 % 0.00 in
15:40 90.1 °F 64.6 °F 30.00 in NNE 2.3 mph 4.6 mph 43 % 0.00 in
15:45 89.9 °F 63.0 °F 30.00 in NNE 2.8 mph 4.6 mph 41 % 0.00 in
15:50 90.1 °F 63.2 °F 30.00 in North 3.3 mph 4.6 mph 41 % 0.00 in
15:55 90.0 °F 63.8 °F 30.00 in North 1.8 mph 3.5 mph 42 % 0.00 in
15:57 90.1 °F 65.9 °F 30.00 in NNW 1.3 mph 3.5 mph 45 % 0.00 in
16:02 90.2 °F 64.0 °F 30.00 in NW 0.3 mph 3.5 mph 42 % 0.00 in
16:07 90.1 °F 63.9 °F 30.00 in NNW 0.9 mph 3.5 mph 42 % 0.00 in
16:12 89.9 °F 64.4 °F 30.00 in NNE 1.7 mph 3.5 mph 43 % 0.00 in
16:17 89.5 °F 64.0 °F 30.00 in North 2.0 mph 3.5 mph 43 % 0.00 in
16:22 89.2 °F 65.1 °F 30.00 in WNW 0.5 mph 3.5 mph 45 % 0.00 in
16:27 88.9 °F 64.2 °F 30.00 in WNW 1.2 mph 3.5 mph 44 % 0.00 in
16:32 88.5 °F 63.1 °F 30.00 in WNW 0.6 mph 2.3 mph 43 % 0.00 in
16:37 88.2 °F 62.9 °F 30.00 in NNE 1.6 mph 3.5 mph 43 % 0.00 in
16:42 87.9 °F 63.9 °F 30.00 in NNE 1.5 mph 3.5 mph 45 % 0.00 in
16:47 87.8 °F 64.4 °F 29.99 in NNE 2.0 mph 3.5 mph 46 % 0.00 in
16:52 87.5 °F 63.5 °F 30.00 in NNW 0.9 mph 2.3 mph 45 % 0.00 in
16:57 87.6 °F 63.0 °F 29.99 in WNW 0.5 mph 1.2 mph 44 % 0.00 in
17:02 87.5 °F 63.5 °F 29.99 in WNW 0.3 mph 1.2 mph 45 % 0.00 in
17:07 87.3 °F 64.6 °F 29.99 in WNW 0.7 mph 2.3 mph 47 % 0.00 in
17:12 87.1 °F 63.8 °F 29.99 in Calm   1.2 mph 46 % 0.00 in
17:15 87.1 °F 62.5 °F 29.99 in WSW 0.7 mph 3.0 mph 44 % 0.00 in
17:20 87.1 °F 63.2 °F 29.99 in Calm     45 % 0.00 in
17:25 86.9 °F 62.4 °F 29.99 in Calm   2.3 mph 44 % 0.00 in
17:30 87.0 °F 61.8 °F 29.99 in WNW 0.8 mph 2.3 mph 43 % 0.00 in
17:35 86.9 °F 60.4 °F 29.99 in NNW 1.8 mph 3.5 mph 41 % 0.00 in
17:40 86.7 °F 61.5 °F 29.99 in NNW 2.1 mph 3.5 mph 43 % 0.00 in
17:42 86.6 °F 60.1 °F 29.99 in NNW 0.6 mph 3.5 mph 41 % 0.00 in
17:47 86.3 °F 60.5 °F 29.99 in NNE 1.4 mph 3.5 mph 42 % 0.00 in
17:52 86.0 °F 60.2 °F 29.99 in NW 1.2 mph 3.0 mph 42 % 0.00 in
17:57 85.6 °F 59.9 °F 29.99 in NNE 1.3 mph 2.3 mph 42 % 0.00 in
18:02 85.2 °F 60.2 °F 29.99 in North 1.6 mph 3.5 mph 43 % 0.00 in
18:07 84.9 °F 59.9 °F 29.99 in North 1.4 mph 3.5 mph 43 % 0.00 in
18:12 84.6 °F 59.0 °F 29.99 in NNW 1.1 mph 3.5 mph 42 % 0.00 in
18:17 84.5 °F 58.9 °F 29.99 in NW 2.2 mph 3.5 mph 42 % 0.00 in
18:22 84.3 °F 60.0 °F 29.99 in WNW 0.1 mph 1.2 mph 44 % 0.00 in
18:27 84.2 °F 60.6 °F 29.99 in WNW 0.3 mph 1.2 mph 45 % 0.00 in
18:32 84.1 °F 60.5 °F 29.99 in Calm   1.2 mph 45 % 0.00 in
18:37 83.9 °F 59.7 °F 29.99 in WNW 0.9 mph 2.3 mph 44 % 0.00 in
18:42 83.8 °F 59.6 °F 29.99 in WNW 1.6 mph 3.5 mph 44 % 0.00 in
18:47 83.6 °F 59.4 °F 29.99 in WNW 0.2 mph 1.2 mph 44 % 0.00 in
18:52 83.6 °F 60.0 °F 30.00 in Calm   1.2 mph 45 % 0.00 in
18:57 83.4 °F 59.8 °F 30.00 in Calm     45 % 0.00 in
19:02 83.1 °F 59.6 °F 30.00 in Calm     45 % 0.00 in
19:07 82.9 °F 59.4 °F 30.00 in Calm     45 % 0.00 in
19:12 82.6 °F 59.1 °F 30.01 in Calm     45 % 0.00 in
19:17 82.4 °F 59.5 °F 30.01 in Calm     46 % 0.00 in
19:22 82.1 °F 59.3 °F 30.01 in Calm     46 % 0.00 in
19:27 82.0 °F 61.5 °F 30.01 in Calm     50 % 0.00 in
19:32 81.7 °F 64.0 °F 30.01 in Calm     55 % 0.00 in
19:38 81.4 °F 64.2 °F 30.01 in Calm     56 % 0.00 in
19:43 81.1 °F 63.4 °F 30.01 in Calm     55 % 0.00 in
19:48 80.8 °F 63.6 °F 30.02 in Calm     56 % 0.00 in
19:53 80.5 °F 63.9 °F 30.01 in Calm     57 % 0.00 in
19:58 80.2 °F 64.6 °F 30.02 in Calm     59 % 0.00 in
20:03 80.0 °F 64.9 °F 30.02 in Calm     60 % 0.00 in
20:08 79.7 °F 64.6 °F 30.02 in Calm     60 % 0.00 in
20:13 79.4 °F 64.3 °F 30.02 in Calm     60 % 0.00 in
20:18 79.0 °F 63.9 °F 30.02 in Calm     60 % 0.00 in
20:23 78.6 °F 63.6 °F 30.02 in Calm     60 % 0.00 in
20:28 78.3 °F 63.7 °F 30.02 in Calm     61 % 0.00 in
20:33 78.0 °F 63.5 °F 30.03 in Calm     61 % 0.00 in
20:38 77.7 °F 63.2 °F 30.03 in Calm     61 % 0.00 in
20:43 77.3 °F 63.3 °F 30.03 in Calm     62 % 0.00 in
20:48 76.8 °F 63.2 °F 30.03 in Calm     63 % 0.00 in
20:53 76.4 °F 63.3 °F 30.03 in Calm     64 % 0.00 in
20:54 76.3 °F 63.7 °F 30.03 in Calm     65 % 0.00 in
20:59 75.8 °F 62.8 °F 30.04 in Calm     64 % 0.00 in
21:04 75.4 °F 62.8 °F 30.04 in Calm     65 % 0.00 in
21:09 75.1 °F 62.5 °F 30.04 in Calm     65 % 0.00 in
21:14 74.9 °F 62.3 °F 30.04 in Calm     65 % 0.00 in
21:19 74.8 °F 62.2 °F 30.05 in Calm   1.2 mph 65 % 0.00 in
21:24 74.6 °F 62.5 °F 30.05 in Calm     66 % 0.00 in
21:29 74.4 °F 62.3 °F 30.05 in WNW 0.3 mph 2.3 mph 66 % 0.00 in
21:34 74.2 °F 62.5 °F 30.05 in Calm     67 % 0.00 in
21:39 74.0 °F 62.8 °F 30.06 in Calm     68 % 0.00 in
21:44 73.7 °F 63.3 °F 30.06 in Calm     70 % 0.00 in
21:49 73.5 °F 63.1 °F 30.05 in Calm     70 % 0.00 in
21:54 73.3 °F 63.3 °F 30.06 in Calm     71 % 0.00 in
21:59 73.1 °F 63.1 °F 30.06 in Calm     71 % 0.00 in
22:04 73.0 °F 63.0 °F 30.06 in Calm     71 % 0.00 in
22:09 72.8 °F 62.8 °F 30.06 in Calm     71 % 0.00 in
22:14 72.6 °F 62.7 °F 30.06 in Calm     71 % 0.00 in
22:19 72.5 °F 62.6 °F 30.06 in Calm     71 % 0.00 in
22:24 72.3 °F 62.4 °F 30.06 in Calm     71 % 0.00 in
22:30 72.1 °F 62.2 °F 30.06 in Calm     71 % 0.00 in
22:35 72.0 °F 62.1 °F 30.06 in Calm     71 % 0.00 in
22:40 71.8 °F 61.9 °F 30.06 in Calm     71 % 0.00 in
22:45 71.7 °F 62.2 °F 30.06 in Calm     72 % 0.00 in
22:50 71.5 °F 62.4 °F 30.07 in Calm     73 % 0.00 in
22:55 71.3 °F 62.6 °F 30.06 in Calm   1.2 mph 74 % 0.00 in
23:00 71.1 °F 62.4 °F 30.06 in Calm     74 % 0.00 in
23:05 70.9 °F 62.2 °F 30.06 in Calm     74 % 0.00 in
23:10 70.7 °F 62.0 °F 30.06 in Calm     74 % 0.00 in
23:15 70.5 °F 62.2 °F 30.06 in Calm     75 % 0.00 in
23:20 70.3 °F 62.4 °F 30.06 in Calm     76 % 0.00 in
23:25 70.1 °F 62.6 °F 30.06 in Calm     77 % 0.00 in
23:30 69.8 °F 62.3 °F 30.06 in Calm     77 % 0.00 in
23:35 69.6 °F 62.4 °F 30.06 in Calm     78 % 0.00 in
23:40 69.4 °F 62.2 °F 30.06 in Calm     78 % 0.00 in
23:45 69.3 °F 61.8 °F 30.07 in Calm     77 % 0.00 in
23:50 69.1 °F 61.9 °F 30.07 in Calm     78 % 0.00 in
23:55 68.9 °F 61.8 °F 30.07 in Calm     78 % 0.00 in
Crab Meadow Weather
Compliments of Weather Underground - 3 mb

Script developed by  Jim McMurry - jmcmurry@mwt.net Adapted for the template by  Wim van der Kuil - Leuven-Template.eu

Extremes: The highest temperature ever recorded in the United States was 134 degrees F at Greenland Ranch in Death Valley, California.